KC8YVF-1 Weather Reports


Display with metric or nautical units.
time (UTC)temp
F
wind
direction
speed
MPH
gust
MPH
rain 1hr
in
rain 24hr
in
rain mn
in
humidity
%
barometer
mb
20260831050859 72 248 0.0 0.0 0.00 0.57 0.00 85 1002.7
20260831045358 72 248 0.0 0.0 0.00 0.57 0.00 85 1002.5
20260831043858 72 248 0.0 0.0 0.00 0.57 0.00 85 1002.3
20260831042358 72 248 0.0 0.0 0.00 0.57 0.00 85 1002.3
20260831040859 72 248 0.0 0.0 0.00 0.59 0.00 86 1002.3
20260831035359 72 248 0.0 0.0 0.00 0.61 0.59 86 1002.7
20260831033859 72 158 0.0 0.0 0.00 0.63 0.59 86 1002.3
20260831032358 71 158 0.0 0.0 0.00 0.63 0.59 86 1002.3
20260831030859 72 158 0.0 0.0 0.00 0.63 0.59 85 1002.4
20260831025359 72 158 0.0 0.0 0.00 0.63 0.59 85 1002.0
20260831023858 72 158 0.0 0.0 0.00 0.63 0.59 85 1002.0
20260831022358 72 158 0.0 0.0 0.00 0.63 0.59 84 1002.0
20260831020859 72 158 0.0 0.0 0.00 0.63 0.59 84 1002.2
20260831015359 73 158 0.0 0.0 0.00 0.63 0.59 84 1002.0
20260831013859 73 158 0.0 0.0 0.00 0.63 0.59 83 1001.6
20260831012359 73 158 0.0 0.0 0.00 0.63 0.59 82 1001.3
20260831010858 74 180 0.0 0.0 0.00 0.63 0.59 82 1001.3
20260831005359 74 135 0.0 0.0 0.00 0.63 0.59 81 1001.3
20260831003858 74 158 0.0 0.0 0.00 0.63 0.59 81 1001.2
20260831002358 75 158 0.0 0.0 0.00 0.63 0.59 80 1001.0
20260831000858 75 158 0.0 0.0 0.00 0.63 0.59 80 1001.0
20260830235357 76 158 0.0 0.0 0.00 0.63 0.59 79 1001.3
20260830233859 76 180 0.0 0.0 0.00 0.63 0.59 79 1001.3
20260830232358 77 158 0.0 0.0 0.00 0.63 0.59 78 1001.0
20260830230858 78 180 6.0 6.0 0.00 0.63 0.59 76 1001.2
20260830225359 79 158 0.0 0.0 0.00 0.63 0.59 75 1001.1
20260830223858 79 158 1.0 1.0 0.00 0.63 0.59 74 1001.3
20260830222359 80 158 2.0 2.0 0.00 0.63 0.59 73 1001.3
20260830220858 80 158 0.0 0.0 0.00 0.63 0.59 73 1001.9
20260830215359 81 158 1.0 1.0 0.00 0.63 0.59 73 1001.9
20260830213858 80 180 0.0 0.0 0.00 0.63 0.59 75 1001.6
20260830212359 80 180 0.0 0.0 0.00 0.63 0.59 77 1002.0
20260830210858 79 225 5.0 5.0 0.00 0.63 0.59 78 1001.9
20260830205358 78 180 0.0 0.0 0.00 0.63 0.59 78 1002.2
20260830203858 78 158 2.0 2.0 0.00 0.63 0.59 79 1002.1
20260830202358 78 180 0.0 0.0 0.00 0.63 0.59 78 1002.0
20260830200858 78 203 0.0 0.0 0.00 0.63 0.59 79 1002.0
20260830195359 78 158 0.0 0.0 0.00 0.63 0.59 79 1002.0
20260830193859 78 135 0.0 0.0 0.00 0.63 0.59 80 1002.0
20260830192358 77 158 0.0 0.0 0.00 0.63 0.59 82 1002.2
20260830190858 74 180 0.0 0.0 0.00 0.63 0.59 85 1002.7
20260830185359 74 158 0.0 0.0 0.00 0.63 0.59 85 1002.7
20260830183859 73 158 0.0 0.0 0.00 0.63 0.59 86 1002.7
20260830182359 73 158 0.0 0.0 0.00 0.63 0.59 88 1003.0
20260830180859 72 158 0.0 0.0 0.00 0.63 0.59 89 1002.8
20260830175358 71 158 0.0 0.0 0.00 0.63 0.59 96 1002.7
20260830173858 71 158 0.0 0.0 0.00 0.63 0.59 91 1002.8
20260830172359 69 158 0.0 0.0 0.00 0.63 0.59 92 1002.9
20260830170858 68 180 0.0 0.0 0.00 0.63 0.59 92 1003.3
20260830165359 67 158 0.0 0.0 0.00 0.63 0.59 92 1003.1
20260830163858 67 158 0.0 0.0 0.00 0.63 0.59 92 1003.3
20260830162358 67 180 2.0 2.0 0.00 0.63 0.59 92 1003.3
20260830160859 66 135 0.0 0.0 0.02 0.63 0.59 93 1003.3
20260830155359 66 158 0.0 0.0 0.16 0.63 0.59 93 1003.3
20260830153858 65 180 0.0 0.0 0.16 0.63 0.59 93 1003.3
20260830152359 65 180 2.0 2.0 0.18 0.63 0.59 93 1003.7
20260830150858 65 135 0.0 0.0 0.20 0.61 0.57 93 1003.8
20260830145359 65 158 0.0 0.0 0.08 0.47 0.43 92 1004.0
20260830143858 65 135 0.0 0.0 0.10 0.47 0.43 92 1004.1
20260830142359 65 158 0.0 0.0 0.08 0.45 0.41 92 1004.4
20260830140859 65 158 0.0 0.0 0.12 0.40 0.36 92 1004.6
20260830135359 65 203 0.0 0.0 0.16 0.38 0.34 92 1004.7
20260830133859 65 158 0.0 0.0 0.18 0.36 0.32 92 1004.7
20260830132359 65 158 0.0 0.0 0.18 0.36 0.32 91 1004.7
20260830130858 65 203 0.0 0.0 0.10 0.28 0.24 91 1005.0
20260830125359 65 203 0.0 0.0 0.04 0.22 0.18 91 1004.7
20260830123858 65 158 0.0 0.0 0.02 0.18 0.14 91 1004.8
20260830122359 65 158 0.0 0.0 0.04 0.18 0.14 91 1005.0
20260830120859 65 180 0.0 0.0 0.06 0.18 0.14 91 1005.0
20260830115358 65 158 0.0 0.0 0.06 0.18 0.14 91 1004.9
20260830113858 65 158 0.0 0.0 0.06 0.16 0.12 96 1004.7
20260830112359 65 180 0.0 0.0 0.04 0.14 0.10 96 1004.3
20260830110858 65 113 0.0 0.0 0.02 0.12 0.08 96 1004.3
20260830105359 65 90 0.0 0.0 0.02 0.12 0.08 96 1004.6
20260830103859 65 90 0.0 0.0 0.00 0.10 0.06 96 1004.0
20260830102359 65 90 0.0 0.0 0.00 0.10 0.06 96 1003.7
20260830100859 65 158 0.0 0.0 0.00 0.10 0.06 96 1004.0
20260830095359 65 158 0.0 0.0 0.02 0.10 0.06 96 1004.0
20260830093859 65 158 0.0 0.0 0.02 0.10 0.06 96 1004.0
20260830092358 65 158 0.0 0.0 0.02 0.10 0.06 96 1004.4
20260830090859 65 158 0.0 0.0 0.02 0.10 0.06 96 1004.4
20260830085400 66 158 0.0 0.0 0.00 0.08 0.04 96 1004.7
20260830083859 66 158 0.0 0.0 0.00 0.08 0.04 96 1004.7
20260830082359 66 158 0.0 0.0 0.02 0.08 0.04 96 1004.8
20260830080900 66 158 0.0 0.0 0.02 0.08 0.04 89 1005.0
20260830075358 66 158 0.0 0.0 0.02 0.08 0.04 89 1004.7
20260830073859 66 158 0.0 0.0 0.02 0.08 0.04 89 1004.7
20260830072358 66 158 0.0 0.0 0.00 0.06 0.02 89 1005.0
20260830070900 67 180 0.0 0.0 0.00 0.06 0.02 88 1005.0
20260830065359 67 180 0.0 0.0 0.00 0.06 0.02 88 1005.4
20260830063858 67 180 0.0 0.0 0.00 0.06 0.02 88 1005.4
20260830062359 67 180 0.0 0.0 0.00 0.06 0.02 88 1005.4
20260830060900 67 180 0.0 0.0 0.00 0.06 0.02 88 1005.7
20260830055358 67 180 0.0 0.0 0.00 0.06 0.02 88 1005.7
20260830053858 67 180 0.0 0.0 0.00 0.06 0.02 88 1005.4
20260830052358 67 180 0.0 0.0 0.00 0.06 0.02 89 1005.4